Weather History for Saginaw, MI

Change the Weather History Date:

Friday, March 29, 2013

  Actual Average Record
Temperature  
Mean Temperature 40 °F 39 °F  
Max Temperature 52 °F 48 °F 67 °F (1998)
Min Temperature 28 °F 30 °F 18 °F (2011)
Degree Days  
Heating Degree Days 26    
Month to date heating degree days  
Since 1 July heating degree days  
Cooling Degree Days 0    
Month to date cooling degree days  
Year to date cooling degree days  
Moisture  
Dew Point 22 °F    
Average Humidity 52    
Maximum Humidity 78    
Minimum Humidity 33    
Precipitation  
Precipitation 0.00 in 0.07 in 0.53 in (2009)
Month to date precipitation 1.91  
Year to date precipitation 5.23  
Snow  
Snow 0.00 in - - ()
Month to date snowfall  
Since 1 July snowfall  
Snow Depth -    
Sea Level Pressure  
Sea Level Pressure 30.26 in    
Wind  
Wind Speed 6 mph (West)    
Max Wind Speed 12 mph    
Max Gust Speed -    
Visibility 10 miles    
Events      
T = Trace of Precipitation, MM = Missing Value Source: NWS Daily Summary

Daily Weather History Graph

Daily Weather History Graph

Search for Another Location

Airport:

Trip Planner

Search our weather history database for the weather conditions in past years. The results will help you decide how hot, cold, wet, or windy it might be!

Date:

Astronomy

Mar. 29, 2013 Rise Set
Actual Time 7:22 AM EDT 7:59 PM EDT
Civil Twilight 6:54 AM EDT 8:28 PM EDT
Nautical Twilight 6:20 AM EDT 9:02 PM EDT
Astronomical Twilight 5:44 AM EDT 9:38 PM EDT
Moon 11:05 PM EDT (3/29) 8:25 AM EDT (3/29)
Length of Visible Light 13h 34m
Length of Day
12h 36m
Waning Gibbous, 93% of the Moon is Illuminated
Mar 29
Waning Gibbous
Apr 3
Last Quarter
Apr 10
New
Apr 18
First Quarter
Apr 25
Full

Hourly Weather History & Observations

Time (EDT) Temp. Windchill Dew Point Humidity Pressure Visibility Wind Dir Wind Speed Gust Speed Precip Events Conditions
12:53 AM 36.0 °F 29.6 °F 21.0 °F 55% 30.28 in 10.0 mi WNW 8.1 mph - N/A   Clear
1:53 AM 34.0 °F 28.8 °F 19.9 °F 56% 30.28 in 10.0 mi West 5.8 mph - N/A   Clear
2:53 AM 33.1 °F 28.7 °F 19.9 °F 59% 30.29 in 10.0 mi WSW 4.6 mph - N/A   Clear
3:53 AM 32.0 °F 26.4 °F 19.9 °F 61% 30.29 in 10.0 mi WSW 5.8 mph - N/A   Clear
4:53 AM 28.9 °F 21.9 °F 21.0 °F 72% 30.29 in 10.0 mi West 6.9 mph - N/A   Clear
5:53 AM 28.0 °F 21.7 °F 19.9 °F 72% 30.29 in 10.0 mi West 5.8 mph - N/A   Clear
6:53 AM 28.9 °F 23.9 °F 21.0 °F 72% 30.29 in 10.0 mi WSW 4.6 mph - N/A   Clear
7:53 AM 28.0 °F 21.7 °F 19.9 °F 72% 30.29 in 10.0 mi West 5.8 mph - N/A   Clear
8:53 AM 33.1 °F 26.9 °F 21.9 °F 64% 30.30 in 10.0 mi West 6.9 mph - N/A   Clear
9:53 AM 36.0 °F 32.1 °F 21.9 °F 57% 30.30 in 10.0 mi West 4.6 mph - N/A   Clear
10:53 AM 41.0 °F 39.0 °F 23.0 °F 49% 30.30 in 10.0 mi WNW 3.5 mph - N/A   Clear
11:53 AM 46.0 °F 43.1 °F 23.0 °F 40% 30.30 in 10.0 mi WNW 5.8 mph - N/A   Clear
12:53 PM 46.9 °F - 21.9 °F 37% 30.28 in 10.0 mi Calm Calm - N/A   Clear
1:53 PM 48.9 °F - 21.9 °F 35% 30.26 in 10.0 mi Variable 4.6 mph - N/A   Clear
2:53 PM 50.0 °F - 21.9 °F 33% 30.24 in 10.0 mi Calm Calm - N/A   Mostly Cloudy
3:53 PM 51.1 °F - 23.0 °F 33% 30.23 in 10.0 mi West 11.5 mph - N/A   Mostly Cloudy
4:53 PM 50.0 °F - 23.0 °F 35% 30.22 in 10.0 mi SSW 4.6 mph - N/A   Partly Cloudy
5:53 PM 50.0 °F - 21.9 °F 33% 30.22 in 10.0 mi WSW 6.9 mph - N/A   Overcast
6:53 PM 50.0 °F - 21.9 °F 33% 30.22 in 10.0 mi WSW 8.1 mph - N/A   Mostly Cloudy
7:53 PM 46.9 °F - 21.9 °F 37% 30.21 in 10.0 mi SW 5.8 mph - N/A   Scattered Clouds
8:53 PM 43.0 °F 39.5 °F 24.1 °F 47% 30.22 in 10.0 mi SW 5.8 mph - N/A   Clear
9:53 PM 42.1 °F 40.2 °F 23.0 °F 47% 30.22 in 10.0 mi WSW 3.5 mph - N/A   Clear
10:53 PM 37.0 °F 32.4 °F 24.1 °F 59% 30.23 in 10.0 mi NNE 5.8 mph - N/A   Clear
11:53 PM 33.1 °F 27.7 °F 27.0 °F 78% 30.24 in 10.0 mi NNW 5.8 mph - N/A   Clear